Location: *
(51.5000°N, 0.1100°W)
Time: 01:32:10
(UTC+00:00)

MSX - Pass Details

Date: 09 August 2024
Orbit: 895 x 904 km, 99.0° (Epoch: 09 September)

Event Time Altitude Azimuth Distance (km) Brightness Sun altitude
Rises 03:40:58 0° 9° (N) 3,544 7.7 -8.2°
Reaches altitude 10° 03:43:50 10° 356° (N) 2,600 6.7 -7.8°
Maximum altitude 03:48:15 23° 306° (NW) 1,821 5.3 -7.3°
Drops below altitude 10° 03:52:39 10° 256° (WSW) 2,588 5.7 -6.7°
Enters shadow 03:53:35 - 250° (WSW) 2,874 5.8 -6.6°
